EW9372 Weather Reports


Display with metric or nautical units.
time (UTC)temp
F
wind
direction
speed
MPH
gust
MPH
rain 1hr
in
rain 24hr
in
rain mn
in
humidity
%
barometer
mb
20260506081954 58 215 0.0 2.0 0.00 0.00 0.00 82 1017.2
20260506081453 59 219 0.0 2.0 0.00 0.00 0.00 82 1017.2
20260506080953 59 245 0.0 2.0 0.00 0.00 0.00 82 1017.1
20260506080925 59 245 0.0 1.0 0.00 0.00 0.00 82 1017.0
20260506080633 59 245 0.0 2.0 0.00 0.00 0.00 82 1017.1
20260506080147 59 245 0.0 1.0 0.00 0.00 0.00 81 1017.1
20260506072740 59 245 0.0 0.0 0.00 0.00 0.00 80 1016.9
20260506072246 59 245 0.0 0.0 0.00 0.00 0.00 80 1016.8
20260506071742 59 245 0.0 0.0 0.00 0.00 0.00 80 1016.7
20260506071228 59 245 0.0 2.0 0.00 0.00 0.00 80 1016.7
20260506071224 59 245 0.0 1.0 0.00 0.00 0.00 80 1016.7
20260506070200 59 245 0.0 2.0 0.00 0.00 0.00 80 1016.7
20260506062319 60 245 1.0 5.0 0.00 0.00 0.00 79 1016.5
20260506061046 60 235 2.0 0.0 0.00 0.00 0.00 79 1016.4
20260506050720 61 191 0.0 1.0 0.00 0.00 0.00 77 1015.7
20260506050222 61 191 0.0 1.0 0.00 0.00 0.00 77 1015.7
20260506044636 61 204 0.0 2.0 0.00 0.00 0.00 77 1015.6
20260506044120 61 204 0.0 2.0 0.00 0.00 0.00 76 1015.6
20260506043617 61 198 0.0 2.0 0.00 0.00 0.00 76 1015.5
20260506043113 61 181 0.0 1.0 0.00 0.00 0.00 76 1015.5
20260506042548 61 182 0.0 1.0 0.00 0.00 0.00 76 1015.3
20260506042044 61 184 0.0 2.0 0.00 0.00 0.00 76 1015.3
20260506041523 61 185 0.0 2.0 0.00 0.00 0.00 76 1015.1
20260506041024 61 206 0.0 1.0 0.00 0.00 0.00 76 1015.1
20260506040524 61 206 0.0 1.0 0.00 0.00 0.00 76 1015.0
20260506040519 61 212 0.0 3.0 0.00 0.00 0.00 76 1015.0
20260506035459 61 213 1.0 3.0 0.00 0.00 0.00 76 1014.9
20260506035000 61 172 1.0 0.0 0.00 0.00 0.00 76 1014.8
20260506034125 62 178 1.0 4.0 0.00 0.00 0.00 75 1014.9
20260506033131 62 165 1.0 4.0 0.00 0.00 0.00 74 1014.8
20260506033124 62 161 1.0 4.0 0.00 0.00 0.00 75 1014.9
20260506032626 62 168 1.0 4.0 0.00 0.00 0.00 75 1014.8
20260506031625 62 184 1.0 4.0 0.00 0.00 0.00 74 1014.7
20260506031126 62 167 1.0 4.0 0.00 0.00 0.00 74 1014.7
20260506030620 62 184 1.0 3.0 0.00 0.00 0.00 74 1014.6
20260506030120 62 200 1.0 4.0 0.00 0.00 0.00 73 1014.7
20260506025622 62 186 1.0 4.0 0.00 0.00 0.00 73 1014.5
20260506025617 62 184 1.0 4.0 0.00 0.00 0.00 73 1014.6
20260506024620 63 190 1.0 4.0 0.00 0.00 0.00 72 1014.3
20260506024116 63 171 1.0 5.0 0.00 0.00 0.00 72 1014.3
20260506023604 63 228 1.0 5.0 0.00 0.00 0.00 72 1014.3
20260506023103 63 205 2.0 5.0 0.00 0.00 0.00 72 1014.3
20260506023059 63 176 1.0 4.0 0.00 0.00 0.00 72 1014.3
20260506022057 63 207 1.0 5.0 0.00 0.00 0.00 71 1014.1
20260506021601 64 187 2.0 4.0 0.00 0.00 0.00 70 1014.0
20260506021556 63 192 1.0 4.0 0.00 0.00 0.00 71 1014.0
20260506020557 64 195 1.0 5.0 0.00 0.00 0.00 70 1014.0
20260506020056 64 192 1.0 5.0 0.00 0.00 0.00 70 1014.0
20260506015557 64 201 1.0 5.0 0.00 0.00 0.00 69 1014.0
20260506015034 64 173 2.0 1.0 0.00 0.00 0.00 69 1013.9
20260506015028 64 216 1.0 3.0 0.00 0.00 0.00 69 1014.0
20260506013021 64 184 1.0 5.0 0.00 0.00 0.00 69 1013.9
20260506012530 64 196 1.0 4.0 0.00 0.00 0.00 68 1013.7
20260506012522 64 140 1.0 5.0 0.00 0.00 0.00 68 1013.8
20260506012022 64 144 1.0 4.0 0.00 0.00 0.00 69 1013.7
20260506011020 64 169 0.0 2.0 0.00 0.00 0.00 70 1014.0
20260506010520 64 144 0.0 2.0 0.00 0.00 0.00 69 1014.0
20260506010014 64 146 1.0 1.0 0.00 0.00 0.00 68 1014.0
20260506004711 65 155 1.0 2.0 0.00 0.00 0.00 68 1014.0
20260506004208 65 158 1.0 0.0 0.00 0.00 0.00 67 1013.8
20260506004203 65 141 1.0 3.0 0.00 0.00 0.00 68 1013.8
20260506003655 65 187 1.0 3.0 0.00 0.00 0.00 67 1013.7
20260506002151 65 153 1.0 4.0 0.00 0.00 0.00 66 1013.7
20260506001153 65 158 0.0 3.0 0.00 0.00 0.00 65 1013.7
20260506000648 65 131 0.0 1.0 0.00 0.00 0.00 65 1013.7
20260506000149 65 174 0.0 0.0 0.00 0.00 0.00 66 1013.7
20260505235632 65 178 0.0 2.0 0.00 0.00 0.00 66 1013.7
20260505235625 65 152 0.0 3.0 0.00 0.00 0.00 67 1013.6
20260505234623 65 124 0.0 3.0 0.00 0.00 0.00 67 1013.7
20260505234124 65 100 0.0 2.0 0.00 0.00 0.00 66 1013.6
20260505233620 65 161 0.0 2.0 0.00 0.00 0.00 66 1013.6
20260505233115 66 169 0.0 2.0 0.00 0.00 0.00 65 1013.6
20260505232609 66 173 0.0 4.0 0.00 0.00 0.00 64 1013.6
20260505232106 66 81 0.0 4.0 0.00 0.00 0.00 64 1013.6
20260505231600 66 84 0.0 2.0 0.00 0.00 0.00 65 1013.6
20260505231018 66 51 1.0 0.0 0.00 0.00 0.00 64 1013.7
20260505225804 66 221 0.0 0.0 0.00 0.00 0.00 64 1013.8
20260505225300 66 222 0.0 2.0 0.00 0.00 0.00 64 1013.8
20260505224758 66 224 0.0 2.0 0.00 0.00 0.00 64 1013.8
20260505224242 65 144 0.0 0.0 0.00 0.00 0.00 64 1013.8
20260505223742 65 144 0.0 0.0 0.00 0.00 0.00 66 1014.0
20260505223234 65 142 0.0 0.0 0.00 0.00 0.00 65 1013.9
20260505222730 65 186 0.0 0.0 0.00 0.00 0.00 66 1014.0
20260505222219 65 186 0.0 0.0 0.00 0.00 0.00 66 1014.1
20260505221704 65 186 0.0 0.0 0.00 0.00 0.00 65 1014.1
20260505221156 65 186 0.0 0.0 0.00 0.00 0.00 66 1014.1
20260505220644 65 180 0.0 2.0 0.00 0.00 0.00 66 1014.0
20260505220144 65 178 0.0 3.0 0.00 0.00 0.00 67 1014.1
20260505215839 65 153 0.0 5.0 0.00 0.00 0.00 67 1014.2
20260505215629 65 178 1.0 3.0 0.00 0.00 0.00 65 1014.1
20260505215612 65 242 2.0 5.0 0.00 0.00 0.00 67 1014.3
20260505215320 65 180 1.0 3.0 0.00 0.00 0.00 67 1014.1
20260505214318 65 145 1.0 5.0 0.00 0.00 0.00 66 1014.2
20260505213041 65 213 2.0 6.0 0.00 0.00 0.00 66 1014.4
20260505212542 65 217 2.0 6.0 0.00 0.00 0.00 67 1014.4
20260505212034 65 226 2.0 6.0 0.00 0.00 0.00 65 1014.4
20260505211534 66 243 2.0 4.0 0.00 0.00 0.00 65 1014.3
20260505210648 66 235 2.0 0.0 0.00 0.00 0.00 66 1014.4
20260505204524 64 227 2.0 7.0 0.00 0.00 0.00 69 1014.3
20260505204026 64 243 2.0 3.0 0.00 0.00 0.00 70 1014.3
20260505202821 65 249 4.0 10.0 0.00 0.00 0.00 66 1014.5
20260505202320 66 235 3.0 9.0 0.00 0.00 0.00 65 1014.5
20260505201823 67 355 3.0 5.0 0.00 0.00 0.00 63 1014.5
20260505201818 67 224 2.0 3.0 0.00 0.00 0.00 61 1014.5
20260505195707 67 231 2.0 5.0 0.00 0.00 0.00 66 1014.6
20260505195209 67 193 1.0 5.0 0.00 0.00 0.00 66 1014.6
20260505194716 65 234 1.0 4.0 0.00 0.00 0.00 69 1014.6
20260505194202 64 233 2.0 4.0 0.00 0.00 0.00 72 1014.5
20260505193655 64 236 2.0 4.0 0.00 0.00 0.00 69 1014.5
20260505193151 62 229 1.0 4.0 0.00 0.00 0.00 71 1014.5
20260505192651 62 242 1.0 4.0 0.00 0.00 0.00 76 1014.5
20260505192149 61 238 2.0 5.0 0.00 0.00 0.00 74 1014.5
20260505191649 61 250 2.0 5.0 0.00 0.00 0.00 76 1014.5
20260505191150 61 230 1.0 5.0 0.00 0.00 0.00 76 1014.4
20260505190649 60 234 0.0 5.0 0.00 0.00 0.00 76 1014.5
20260505190146 61 235 0.0 3.0 0.00 0.00 0.00 72 1014.4
20260505185642 61 235 0.0 1.0 0.00 0.00 0.00 76 1014.4
20260505184510 60 241 1.0 4.0 0.00 0.00 0.00 78 1014.4
20260505184009 60 231 1.0 5.0 0.00 0.00 0.00 78 1014.4
20260505184001 60 232 2.0 5.0 0.00 0.00 0.00 76 1014.4
20260505182955 60 210 2.0 4.0 0.00 0.00 0.00 77 1014.4
20260505181832 59 231 0.0 5.0 0.00 0.00 0.00 79 1014.3
20260505181331 59 238 0.0 3.0 0.00 0.00 0.00 80 1014.2
20260505181323 59 248 0.0 4.0 0.00 0.00 0.00 80 1014.1
20260505181031 59 238 1.0 4.0 0.00 0.00 0.00 77 1014.2
20260505175820 59 248 1.0 4.0 0.00 0.00 0.00 81 1014.1
20260505175310 58 236 1.0 5.0 0.00 0.00 0.00 82 1014.1
20260505175306 59 249 1.0 5.0 0.00 0.00 0.00 82 1014.1
20260505174307 58 227 1.0 4.0 0.00 0.00 0.00 83 1014.0
20260505173800 58 230 2.0 5.0 0.00 0.00 0.00 85 1014.0
20260505173251 58 232 1.0 5.0 0.00 0.00 0.00 86 1014.0
20260505172750 57 215 1.0 4.0 0.00 0.00 0.00 90 1014.0
20260505172241 56 161 1.0 4.0 0.00 0.00 0.00 91 1013.9
20260505171730 56 218 1.0 4.0 0.00 0.00 0.00 91 1013.9
20260505171226 56 246 1.0 2.0 0.00 0.00 0.00 91 1013.9
20260505165826 55 224 1.0 4.0 0.00 0.00 0.00 92 1013.9
20260505165822 55 225 1.0 4.0 0.00 0.00 0.00 91 1013.9
20260505165550 55 227 1.0 1.0 0.00 0.00 0.00 91 1013.8
20260505164820 55 223 1.0 4.0 0.00 0.00 0.00 92 1013.9
20260505163120 54 201 1.0 3.0 0.00 0.00 0.00 92 1013.8
20260505162620 54 223 1.0 3.0 0.00 0.00 0.00 91 1013.8
20260505162612 54 207 2.0 4.0 0.00 0.00 0.00 92 1013.7
20260505162322 54 225 2.0 4.0 0.00 0.00 0.00 91 1013.7
20260505161109 53 191 2.0 4.0 0.00 0.00 0.00 92 1013.6
20260505160600 53 192 2.0 5.0 0.00 0.00 0.00 91 1013.6
20260505152445 52 186 1.0 4.0 0.00 0.00 0.00 92 1013.6
20260505151940 52 179 1.0 4.0 0.00 0.00 0.00 91 1013.5
20260505151438 52 185 1.0 4.0 0.00 0.00 0.00 91 1013.5
20260505150933 52 191 1.0 4.0 0.00 0.00 0.00 91 1013.4
20260505150430 52 181 1.0 4.0 0.00 0.00 0.00 91 1013.5
20260505140542 51 175 2.0 3.0 0.00 0.00 0.00 91 1013.0
20260505124835 51 200 2.0 5.0 0.00 0.00 0.00 91 1012.5
20260505124335 51 200 2.0 4.0 0.00 0.00 0.00 91 1012.5
20260505123835 51 200 2.0 5.0 0.00 0.00 0.00 91 1012.5
20260505123338 51 185 2.0 6.0 0.00 0.00 0.00 91 1012.5
20260505122836 51 202 2.0 6.0 0.00 0.00 0.00 91 1012.5
20260505122331 51 211 3.0 6.0 0.00 0.00 0.00 91 1012.3
20260505121831 51 201 2.0 5.0 0.00 0.00 0.00 91 1012.3
20260505121329 51 207 2.0 3.0 0.00 0.00 0.00 91 1012.2
20260505120140 51 186 3.0 6.0 0.00 0.00 0.00 91 1012.2
20260505115634 51 183 3.0 6.0 0.00 0.00 0.00 91 1012.3
20260505115138 51 204 2.0 6.0 0.00 0.00 0.00 91 1012.5
20260505115134 51 184 2.0 5.0 0.00 0.00 0.00 91 1012.3
20260505114125 51 227 2.0 6.0 0.00 0.00 0.00 91 1012.6
20260505113626 52 226 2.0 4.0 0.00 0.00 0.00 91 1012.6
20260505113125 52 228 2.0 6.0 0.00 0.00 0.00 91 1012.7
20260505112626 52 202 2.0 6.0 0.00 0.00 0.00 91 1012.7
20260505112124 52 209 2.0 4.0 0.00 0.00 0.00 91 1012.6
20260505111622 52 183 1.0 4.0 0.00 0.00 0.00 91 1012.7
20260505111124 52 187 1.0 4.0 0.00 0.00 0.00 91 1012.7
20260505110622 52 194 2.0 4.0 0.00 0.00 0.00 91 1012.5
20260505110127 52 184 2.0 6.0 0.00 0.00 0.00 91 1012.5
20260505110123 52 217 2.0 4.0 0.00 0.00 0.00 91 1012.5
20260505102122 52 213 2.0 1.0 0.00 0.00 0.00 91 1012.6
20260505101042 52 236 2.0 1.0 0.00 0.00 0.00 91 1012.6
20260505095437 52 213 2.0 4.0 0.00 0.00 0.00 91 1012.5
20260505094934 52 193 2.0 4.0 0.00 0.00 0.00 91 1012.5
20260505094428 52 185 2.0 4.0 0.00 0.00 0.00 91 1012.5
20260505093930 52 170 1.0 4.0 0.00 0.00 0.00 91 1012.6
20260505093431 52 125 0.0 1.0 0.00 0.00 0.00 91 1012.6
20260505092930 52 124 0.0 2.0 0.00 0.00 0.00 91 1012.9
20260505092429 52 121 1.0 2.0 0.00 0.00 0.00 91 1013.0
20260505091929 52 159 0.0 2.0 0.00 0.00 0.00 91 1012.8
20260505091423 52 153 0.0 1.0 0.00 0.00 0.00 91 1012.9
20260505090922 52 153 0.0 2.0 0.00 0.00 0.00 91 1012.9
20260505090419 52 153 0.0 2.0 0.00 0.00 0.00 91 1013.1
20260505085916 52 154 0.0 2.0 0.00 0.00 0.00 91 1013.1
20260505085414 52 152 0.0 2.0 0.00 0.00 0.00 91 1013.2
20260505084906 52 148 0.0 2.0 0.00 0.00 0.00 91 1013.1
20260505084359 52 142 0.0 0.0 0.00 0.00 0.00 91 1013.3
20260505082902 52 147 0.0 2.0 0.00 0.00 0.00 91 1013.3
20260505082858 52 148 0.0 2.0 0.00 0.00 0.00 91 1013.3